Find Starlink 4787

NORAD ID: 53904 Int'l Des: 2022-119 Owner: SPXS Country: US Constellation: starlink operational
LEOCIRCULAR

当前视图

正在加载3D地球...

About Starlink 4787

Starlink 4787 (NORAD 53904) is a starlink constellation satellite (v1.5) launched Sep 24, 2022 by SPXS of US. It operates in LEO, CIRCULAR orbit with a mass of 305.00 kg.

关于 Starlink 4787

正在加载描述...

即将过境

Passes for default location (London). Set your location on the main map for personalized predictions.

高度历史

Loading altitude history...

两行轨道根数

1 53904U 22119U 26165.55532350 .00000207 00000-0 31075-4 0 9993
2 53904 53.1592 248.7932 0001232 89.6844 270.4289 15.08832468206319
Epoch: Jun 14, 2026 • Age: 12 hours

当前状态

高度 559.1 km
速度 7.58 km/s
星下点 -53.25°S, 127.96°W
发射日期 Sep 24, 2022
运行时间 3.7 years
类型 internet

技术详情

分类 Payload
质量 305.00 kg
干质量 290.00 kg
总质量 305.00 kg
长度 0.20 m
直径 2.80 m
跨度 9.00 m
形状 Box + pan
制造商 SPXS
平台类型 Starlink
阶段状态 In Orbit
所有者/国家 SPXS/US

Most Searched